Weather History for Gunnison, CO

Change the Weather History Date:

Saturday, November 5, 2011

  Actual Average Record
Temperature  
Mean Temperature 34 °F -  
Max Temperature 44 °F 45 °F 60 °F (1999)
Min Temperature 24 °F 18 °F 12 °F (1999)
Degree Days  
Heating Degree Days 31    
Moisture  
Dew Point 23 °F    
Average Humidity 72    
Maximum Humidity 86    
Minimum Humidity 49    
Precipitation  
Precipitation 0.00 in - - ()
Sea Level Pressure  
Sea Level Pressure 29.62 in    
Wind  
Wind Speed 5 mph (WSW)    
Max Wind Speed 31 mph    
Max Gust Speed 41 mph    
Visibility 9 miles    
Events      
Averages and records for this station are not official NWS values.
T = Trace of Precipitation, MM = Missing Value Source: NWS Daily Summary

Daily Weather History Graph

Daily Weather History Graph

Search for Another Location

Airport:

Trip Planner

Search our weather history database for the weather conditions in past years. The results will help you decide how hot, cold, wet, or windy it might be!

Date:

Astronomy

Nov. 05, 2011 Rise Set
Actual Time 7:38 AM MDT 6:03 PM MDT
Civil Twilight 7:10 AM MDT 6:31 PM MDT
Nautical Twilight 6:39 AM MDT 7:02 PM MDT
Astronomical Twilight 6:08 AM MDT 7:33 PM MDT
Moon 3:20 PM MDT (11/5) 2:54 AM MDT (11/5)
Length of Visible Light 11h 20m
Length of Day
10h 25m
Waxing Gibbous, 78% of the Moon is Illuminated
Nov 5
Waxing Gibbous
Nov 10
Full
Nov 18
Last Quarter
Nov 24
New
Dec 2
First Quarter

Hourly Weather History & Observations

Time (MDT) Temp. Windchill Dew Point Humidity Pressure Visibility Wind Dir Wind Speed Gust Speed Precip Events Conditions
12:15 AM 32.0 °F - 23.0 °F 69% 29.79 in 10.0 mi Calm Calm - N/A   Clear
12:35 AM 28.4 °F - 21.2 °F 74% 29.78 in 10.0 mi Calm Calm - N/A   Clear
12:55 AM 28.4 °F 24.6 °F 21.2 °F 74% 29.76 in 10.0 mi North 3.5 mph - N/A   Clear
1:35 AM 28.4 °F - 21.2 °F 74% 29.73 in 10.0 mi Calm Calm - N/A   Clear
1:55 AM 24.8 °F - 19.4 °F 80% 29.72 in 10.0 mi Calm Calm - N/A   Clear
2:15 AM 26.6 °F - 21.2 °F 80% 29.71 in 10.0 mi Calm Calm - N/A   Clear
2:35 AM 26.6 °F - 21.2 °F 80% 29.70 in 10.0 mi Calm Calm - N/A   Clear
2:55 AM 24.8 °F - 19.4 °F 80% 29.69 in 10.0 mi Calm Calm - N/A   Clear
3:15 AM 26.6 °F 22.6 °F 21.2 °F 80% 29.67 in 10.0 mi North 3.5 mph - N/A   Clear
3:35 AM 26.6 °F - 21.2 °F 80% 29.66 in 10.0 mi Calm Calm - N/A   Partly Cloudy
3:55 AM 26.6 °F - 19.4 °F 74% 29.64 in 10.0 mi Calm Calm - N/A   Partly Cloudy
4:15 AM 26.6 °F 22.6 °F 19.4 °F 74% 29.62 in 10.0 mi East 3.5 mph - N/A   Clear
4:35 AM 24.8 °F - 19.4 °F 80% 29.62 in 10.0 mi Calm Calm - N/A   Clear
4:55 AM 26.6 °F - 21.2 °F 80% 29.61 in 10.0 mi Calm Calm - N/A   Clear
5:35 AM 24.8 °F - 19.4 °F 80% 29.61 in 10.0 mi Calm Calm - N/A   Clear
5:55 AM 24.8 °F - 19.4 °F 80% 29.59 in 10.0 mi Calm Calm - N/A   Partly Cloudy
6:15 AM 24.8 °F - 19.4 °F 80% 29.59 in 10.0 mi Calm Calm - N/A   Partly Cloudy
6:55 AM 24.8 °F 20.5 °F 19.4 °F 80% 29.59 in 10.0 mi SSE 3.5 mph - N/A   Overcast
7:15 AM 26.6 °F 22.6 °F 21.2 °F 80% 29.56 in 10.0 mi NW 3.5 mph - N/A   Overcast
7:35 AM 26.6 °F 22.6 °F 21.2 °F 80% 29.57 in 10.0 mi NNE 3.5 mph - N/A   Mostly Cloudy
7:55 AM 28.4 °F - 21.2 °F 74% 29.56 in 10.0 mi Calm Calm - N/A   Overcast
8:15 AM 28.4 °F - 21.2 °F 74% 29.55 in 5.0 mi Calm Calm - N/A   Overcast
8:35 AM 28.4 °F - 23.0 °F 80% 29.55 in 8.0 mi Calm Calm - N/A   Overcast
8:55 AM 28.4 °F - 24.8 °F 86% 29.55 in 10.0 mi Calm Calm - N/A   Overcast
9:15 AM 28.4 °F 24.6 °F 24.8 °F 86% 29.54 in 10.0 mi SSW 3.5 mph - N/A   Overcast
9:55 AM 30.2 °F - 24.8 °F 80% 29.52 in 10.0 mi Calm Calm - N/A   Mostly Cloudy
10:15 AM 30.2 °F - 26.6 °F 86% 29.53 in 10.0 mi Calm Calm - N/A   Mostly Cloudy
10:55 AM 33.8 °F - 28.4 °F 81% 29.53 in 10.0 mi Calm Calm - N/A   Overcast
11:15 AM 39.2 °F 35.0 °F 30.2 °F 70% 29.51 in 10.0 mi North 5.8 mph - N/A   Overcast
11:55 AM 39.2 °F - 30.2 °F 70% 29.50 in 10.0 mi Calm Calm - N/A   Mostly Cloudy
12:15 PM 41.0 °F 37.1 °F 30.2 °F 65% 29.50 in 10.0 mi SSE 5.8 mph - N/A   Mostly Cloudy
12:35 PM 39.2 °F 33.0 °F 28.4 °F 65% 29.49 in 10.0 mi West 9.2 mph 20.7 mph N/A   Mostly Cloudy
12:55 PM 41.0 °F 33.5 °F 28.4 °F 61% 29.47 in 10.0 mi SW 13.8 mph - N/A   Partly Cloudy
1:15 PM 44.6 °F 38.1 °F 28.4 °F 53% 29.47 in 10.0 mi WSW 13.8 mph 19.6 mph N/A   Scattered Clouds
1:35 PM 41.0 °F 30.9 °F 26.6 °F 57% 29.48 in 8.0 mi WSW 24.2 mph 36.8 mph N/A   Overcast
1:55 PM 42.8 °F 33.8 °F 26.6 °F 53% 29.48 in 10.0 mi WSW 21.9 mph 33.4 mph N/A   Mostly Cloudy
2:15 PM 39.2 °F 27.2 °F 21.2 °F 49% 29.48 in 10.0 mi WSW 31.1 mph 40.3 mph N/A   Mostly Cloudy
2:35 PM 37.4 °F 25.0 °F 23.0 °F 56% 29.51 in 10.0 mi WSW 29.9 mph 40.3 mph N/A   Overcast
2:55 PM 37.4 °F 24.8 °F 24.8 °F 60% 29.54 in 8.0 mi WSW 31.1 mph 41.4 mph N/A   Overcast
3:15 PM 35.6 °F 23.2 °F 24.8 °F 65% 29.56 in 9.0 mi SW 26.5 mph 40.3 mph N/A   Overcast
3:35 PM 35.6 °F 24.0 °F 24.8 °F 65% 29.57 in 10.0 mi WSW 23.0 mph 32.2 mph N/A   Overcast
3:55 PM 35.6 °F 24.0 °F 24.8 °F 65% 29.59 in 10.0 mi SW 23.0 mph 27.6 mph N/A   Overcast
4:15 PM 33.8 °F 24.8 °F 24.8 °F 70% 29.61 in 9.0 mi WSW 12.7 mph 19.6 mph N/A   Mostly Cloudy
4:35 PM 35.6 °F 26.6 °F 23.0 °F 60% 29.62 in 10.0 mi SW 13.8 mph 23.0 mph N/A   Mostly Cloudy
4:55 PM 33.8 °F 25.3 °F 24.8 °F 70% 29.64 in 10.0 mi SW 11.5 mph 17.3 mph N/A   Mostly Cloudy
5:15 PM 33.8 °F 24.3 °F 26.6 °F 75% 29.66 in 9.0 mi SW 13.8 mph 20.7 mph N/A   Mostly Cloudy
5:55 PM 30.2 °F 20.8 °F 24.8 °F 80% 29.69 in 1.2 mi WSW 11.5 mph - N/A   Overcast
6:15 PM 30.2 °F 19.3 °F 24.8 °F 80% 29.70 in 4.0 mi WSW 15.0 mph 21.9 mph N/A   Overcast
6:35 PM 28.4 °F 18.5 °F 23.0 °F 80% 29.73 in 2.5 mi West 11.5 mph 23.0 mph N/A   Mostly Cloudy
6:55 PM 30.2 °F 18.5 °F 19.4 °F 64% 29.74 in 9.0 mi WSW 17.3 mph 28.8 mph N/A   Mostly Cloudy
7:15 PM 30.2 °F 18.1 °F 19.4 °F 64% 29.76 in 10.0 mi WSW 18.4 mph 25.3 mph N/A   Scattered Clouds
7:35 PM 28.4 °F 17.5 °F 17.6 °F 64% 29.78 in 8.0 mi WSW 13.8 mph 25.3 mph N/A   Scattered Clouds
7:55 PM 30.2 °F 20.2 °F 17.6 °F 60% 29.80 in 10.0 mi WSW 12.7 mph 24.2 mph N/A   Overcast
8:15 PM 28.4 °F 15.4 °F 17.6 °F 64% 29.80 in 5.0 mi WSW 19.6 mph 28.8 mph N/A   Mostly Cloudy
8:35 PM 28.4 °F 16.2 °F 17.6 °F 64% 29.80 in 10.0 mi WSW 17.3 mph 25.3 mph N/A   Overcast
8:55 PM 28.4 °F 16.2 °F 17.6 °F 64% 29.81 in 10.0 mi WSW 17.3 mph 24.2 mph N/A   Overcast
9:15 PM 28.4 °F 16.6 °F 17.6 °F 64% 29.82 in 10.0 mi WSW 16.1 mph 23.0 mph N/A   Overcast
9:35 PM 28.4 °F 19.7 °F 17.6 °F 64% 29.83 in 10.0 mi WSW 9.2 mph - N/A   Mostly Cloudy
9:55 PM 28.4 °F 19.1 °F 15.8 °F 59% 29.84 in 10.0 mi WSW 10.4 mph - N/A   Mostly Cloudy
10:15 PM 26.6 °F 16.8 °F 19.4 °F 74% 29.85 in 5.0 mi West 10.4 mph 17.3 mph N/A   Mostly Cloudy
10:35 PM 26.6 °F 20.0 °F 19.4 °F 74% 29.85 in 10.0 mi SSW 5.8 mph - N/A   Overcast
10:55 PM 28.4 °F 19.7 °F 15.8 °F 59% 29.85 in 10.0 mi SSW 9.2 mph - N/A   Overcast
11:15 PM 28.4 °F 19.7 °F 15.8 °F 59% 29.85 in 10.0 mi SW 9.2 mph - N/A   Overcast
11:35 PM 28.4 °F 22.2 °F 17.6 °F 64% 29.85 in 10.0 mi SSW 5.8 mph - N/A   Overcast
11:55 PM 26.6 °F 20.0 °F 17.6 °F 69% 29.85 in 10.0 mi South 5.8 mph - N/A   Overcast